[[{"header":{"parameterUnit":"m.s-1","parameterCategory":1,"la1":30.2991,"la2":30.254,"lo1":-89.0895,"lo2":-89.0444,"dy":0.0017,"dx":0.0017,"nx":28,"ny":28,"refTime":"2024-02-23T09:00:00:Z","depth":0,"parameterNumber":2,"parameterNumberName":"U-component_of_WINDS"},"data":[0,0,0,0,0,0,0,0,0,0,0,0,0,0,0,0,0,0,0,0,0,0,0,0,0,0,0,0,0,0,0,0,0,0,0,0,0,0,0,0,0,0,0,0,0,0,0,0,0,0,0,0,0,0,0,0,0,0,2.8068,2.8068,0,2.8115,2.8115,2.8116,2.8093,2.8091,2.809,2.8089,2.8137,2.814,2.8142,0,0,0,0,0,0,0,0,0,0,0,0,0,2.7959,2.7961,2.8068,2.8068,2.8069,2.8115,2.8115,2.8116,2.8093,2.8091,2.809,2.8088,2.8136,2.8139,2.8142,0,0,0,0,0,0,0,0,0,0,0,0,0,2.8006,2.7962,2.8068,2.8063,2.8063,2.8115,2.8115,2.8116,2.8093,2.8091,2.8089,2.8088,2.8135,2.8139,2.8143,2.8202,0,0,2.8154,2.8155,0,0,0,0,0,0,0,0,2.8003,2.801,2.8063,2.8063,2.8063,2.8096,2.8095,2.8145,2.8094,2.8082,2.8089,2.8087,2.8125,2.8129,2.8142,2.8204,2.8206,2.8154,2.8156,2.8158,2.8159,0,0,0,0,0,0,0,2.8,2.8008,2.8086,2.8064,2.8064,2.8059,2.8063,2.8104,2.8113,2.8083,2.8081,2.8087,2.8125,2.8139,2.8143,2.8207,2.8154,2.8157,2.8159,2.8161,2.8322,2.8324,0,0,0,0,0,0,2.7997,2.8005,2.8085,2.8088,2.8028,2.8062,2.8067,2.8087,2.8113,2.8115,2.8088,2.8086,2.8133,2.8139,2.8145,2.8218,2.8158,2.8161,2.8163,2.832,2.8322,2.8325,0,0,0,0,0,0,2.7995,2.8004,2.8083,2.8046,2.8056,2.8066,2.8089,2.8089,2.8103,2.8117,2.8118,2.8101,2.8132,2.814,2.8188,2.8219,2.8163,2.8166,2.8317,2.8321,2.8324,2.8362,0,0,0,0,0,0,2.7992,2.8004,2.8026,2.8047,2.8058,2.8125,2.809,2.8092,2.811,2.8106,2.8129,2.8131,2.8131,2.8183,2.8192,2.8223,2.8169,2.8315,2.8319,2.8323,2.8358,2.8366,2.8373,0,0,0,0,0,2.7988,2.8034,2.8027,2.8037,2.8086,2.8127,2.8133,2.8133,2.8112,2.8135,2.8144,2.8131,2.8214,2.8188,2.8198,2.823,2.8313,2.8318,2.8322,2.8355,2.8365,2.8373,0,0,0,0,0,0,2.8016,2.8037,2.8029,2.8084,2.8104,2.8123,2.8152,2.8143,2.8169,2.8165,2.8163,2.8168,2.8219,2.8229,2.8201,2.829,2.826,2.8267,2.8282,2.8291,2.8299,2.8295,2.8172,0,0,0,0,0,2.8029,2.806,2.8077,2.8123,2.8134,2.8141,2.8159,2.8157,2.8178,2.8186,2.8199,2.822,2.8251,2.8271,2.8301,2.836,2.8365,2.8387,2.8394,2.84,2.8407,2.8441,2.8451,2.834,2.834,2.834,0,0,2.8055,2.807,2.809,2.8129,2.8145,2.8179,2.8149,2.8185,2.821,2.8192,2.8239,2.8249,2.8273,2.8327,2.8352,2.8337,2.8439,2.8406,2.8411,2.8414,2.8447,2.8457,2.8467,2.8343,2.8343,2.8342,0,0,2.812,2.8134,2.8176,2.8192,2.8216,2.8221,2.8231,2.8252,2.8259,2.8306,2.8294,2.8324,2.8377,2.8395,2.8411,2.8485,2.8474,2.8494,2.8534,2.8567,2.8576,2.8583,2.8612,2.8622,2.85,2.8501,2.8501,0,2.815,2.8199,2.8198,2.8236,2.8254,2.824,2.8283,2.8299,2.8331,2.8344,2.8327,2.8395,2.841,2.847,2.8488,2.8501,2.8513,2.8492,2.8574,2.8582,2.8589,2.8616,2.8627,2.8503,2.8503,2.8502,2.8502,0,2.8236,2.8271,2.8301,2.8334,2.8356,2.8395,2.8401,2.8423,2.8419,2.8426,2.8476,2.8493,2.8527,2.854,2.8537,2.86,2.8591,2.8574,2.8544,2.8603,2.8628,2.8638,2.8506,2.8506,2.8505,2.8504,0,0,2.8319,2.8352,2.8363,2.8379,2.8405,2.8432,2.8472,2.8506,2.8526,2.8549,2.8583,2.863,2.8615,2.8633,2.8632,2.8661,2.8721,2.8641,2.8641,2.8657,2.8794,2.8808,2.882,2.8714,2.8716,2.8717,2.8793,0,2.8388,2.8458,2.8459,2.8524,2.8557,2.8545,2.858,2.86,2.8608,2.8638,2.8647,2.868,2.8658,2.8669,2.8697,2.8708,2.8749,2.8702,2.8747,2.8749,2.8743,2.8833,2.8846,2.8917,2.8803,2.8804,2.8806,0,2.8477,2.8504,2.8573,2.8596,2.861,2.8642,2.8673,2.8702,2.8725,2.8729,2.8751,2.8745,2.8787,2.8755,2.8814,2.8782,2.8801,2.8809,2.8812,2.8817,2.8781,2.8841,2.8939,2.8951,2.8821,2.882,2.8819,0,2.8533,2.8587,2.8635,2.8649,2.8677,2.87,2.8713,2.8734,2.8755,2.8783,2.8796,2.8828,2.8846,2.8871,2.8875,2.8851,2.8935,2.8903,2.894,2.8941,2.8959,2.8958,2.9063,2.8969,2.8969,2.8969,2.8968,0,2.861,2.8653,2.8661,2.8691,2.874,2.874,2.8788,2.8799,2.8819,2.8852,2.8842,2.8873,2.8876,2.8908,2.8911,2.8961,2.8968,2.8973,2.8974,2.8975,2.8975,2.8988,2.8983,2.8971,2.8971,2.897,2.897,0,2.8681,2.8688,2.8741,2.8764,2.8771,2.8806,2.8825,2.8855,2.8862,2.8904,2.8914,2.8925,2.8963,2.8969,2.9013,2.9015,2.9075,2.9069,2.9067,2.9067,2.9105,2.9102,2.9222,2.9239,2.9133,2.9134,2.9135,0,2.873,2.8764,2.8791,2.8812,2.8826,2.8861,2.8882,2.8884,2.8907,2.8938,2.8964,2.9,2.903,2.9091,2.9104,2.9138,2.9134,2.9174,2.9139,2.914,2.9137,2.9135,2.914,2.9181,2.9182,2.9183,2.9184,0,2.8818,2.882,2.8851,2.8885,2.8911,2.8937,2.8962,2.898,2.8985,2.9012,2.905,2.9073,2.9119,2.9156,2.919,2.9204,2.9196,2.9195,2.9206,2.9208,2.9206,2.9209,2.9087,2.9192,2.9191,2.9191,2.919,2.919,2.8881,2.891,2.8935,2.897,2.8989,2.9013,2.9043,2.9054,2.9087,2.9124,2.9124,2.9166,2.9191,2.9236,2.9252,2.9287,2.9274,2.9289,2.9293,2.9297,2.9302,2.9199,2.9293,2.9292,2.9292,2.9292,2.9292,0,2.8969,2.8984,2.9017,2.9053,2.9082,2.9071,2.9098,2.9123,2.9161,2.9185,2.9215,2.926,2.9297,2.9313,2.9349,2.9373,2.9371,2.9383,2.9382,2.9386,2.931,2.9298,2.9385,2.9385,2.9385,2.9385,2.9385,2.9385,2.9018,2.9069,2.9074,2.9135,2.915,2.9192,2.9209,2.9231,2.925,2.9302,2.9332,2.9343,2.9364,2.9402,2.9435,2.9439,2.9454,2.9468,2.9471,2.94,2.9391,2.9382,2.937,2.9471,2.9471,2.9544,2.9544,2.9545]},{"header":{"parameterUnit":"m.s-1","parameterCategory":1,"la1":30.2991,"la2":30.254,"lo1":-89.0895,"lo2":-89.0444,"dy":0.0017,"dx":0.0017,"nx":28,"ny":28,"refTime":"2024-02-23T09:00:00:Z","depth":0,"parameterNumber":3,"parameterNumberName":"V-component_of_WINDS"},"data":[0,0,0,0,0,0,0,0,0,0,0,0,0,0,0,0,0,0,0,0,0,0,0,0,0,0,0,0,0,0,0,0,0,0,0,0,0,0,0,0,0,0,0,0,0,0,0,0,0,0,0,0,0,0,0,0,0,0,-2.8796,-2.8796,0,-2.8835,-2.8836,-2.8836,-2.8841,-2.884,-2.884,-2.8839,-2.8882,-2.8884,-2.8885,0,0,0,0,0,0,0,0,0,0,0,0,0,-2.8726,-2.8728,-2.8796,-2.8796,-2.8797,-2.8835,-2.8836,-2.8836,-2.8841,-2.884,-2.884,-2.8839,-2.8882,-2.8883,-2.8885,0,0,0,0,0,0,0,0,0,0,0,0,0,-2.876,-2.8728,-2.8796,-2.8803,-2.8804,-2.8835,-2.8836,-2.8837,-2.8841,-2.884,-2.884,-2.8839,-2.8881,-2.8883,-2.8885,-2.8912,0,0,-2.8892,-2.8893,0,0,0,0,0,0,0,0,-2.8758,-2.8763,-2.8802,-2.8803,-2.8804,-2.8832,-2.8827,-2.8862,-2.8841,-2.8827,-2.8839,-2.8839,-2.8866,-2.887,-2.8878,-2.8914,-2.8916,-2.8893,-2.8894,-2.8895,-2.8896,0,0,0,0,0,0,0,-2.8756,-2.8761,-2.8811,-2.8802,-2.8804,-2.8806,-2.881,-2.8834,-2.885,-2.8828,-2.8829,-2.8833,-2.8867,-2.8876,-2.888,-2.8916,-2.8893,-2.8895,-2.8896,-2.8897,-2.8977,-2.8977,0,0,0,0,0,0,-2.8752,-2.8759,-2.881,-2.8813,-2.8779,-2.8808,-2.8812,-2.8824,-2.8849,-2.8853,-2.8834,-2.8833,-2.8873,-2.8877,-2.8881,-2.8915,-2.8895,-2.8897,-2.8898,-2.8976,-2.8977,-2.8978,0,0,0,0,0,0,-2.875,-2.8756,-2.8809,-2.8786,-2.8793,-2.8809,-2.8823,-2.8825,-2.8835,-2.8853,-2.8857,-2.884,-2.8872,-2.8878,-2.8904,-2.8916,-2.8898,-2.89,-2.8975,-2.8976,-2.8977,-2.8981,0,0,0,0,0,0,-2.8748,-2.8756,-2.8765,-2.8786,-2.8794,-2.883,-2.8823,-2.8826,-2.8838,-2.8838,-2.886,-2.8864,-2.8872,-2.8901,-2.8907,-2.8919,-2.8902,-2.8974,-2.8976,-2.8977,-2.898,-2.8982,-2.8984,0,0,0,0,0,-2.8746,-2.8765,-2.8766,-2.8772,-2.8806,-2.8831,-2.8835,-2.8844,-2.8839,-2.8849,-2.8862,-2.8863,-2.8914,-2.8904,-2.891,-2.8923,-2.8973,-2.8975,-2.8977,-2.8979,-2.8982,-2.8984,0,0,0,0,0,0,-2.8745,-2.8768,-2.8769,-2.8795,-2.8811,-2.8832,-2.8845,-2.8847,-2.8865,-2.8864,-2.8875,-2.8881,-2.8907,-2.8918,-2.8906,-2.8951,-2.8943,-2.8946,-2.8943,-2.8946,-2.8948,-2.8945,-2.8904,0,0,0,0,0,-2.8748,-2.8766,-2.8785,-2.8806,-2.8814,-2.8828,-2.8839,-2.8845,-2.8862,-2.8869,-2.8883,-2.89,-2.8921,-2.8934,-2.8953,-2.8982,-2.8987,-2.8994,-2.8996,-2.8998,-2.9,-2.9018,-2.9022,-2.8983,-2.8983,-2.8983,0,0,-2.8754,-2.8769,-2.8779,-2.8806,-2.8819,-2.8838,-2.8833,-2.8853,-2.8868,-2.8872,-2.8898,-2.8909,-2.893,-2.8958,-2.8971,-2.8967,-2.9012,-2.9,-2.9001,-2.9003,-2.902,-2.9024,-2.9027,-2.8984,-2.8984,-2.8984,0,0,-2.8776,-2.8788,-2.8807,-2.882,-2.884,-2.885,-2.8854,-2.8875,-2.8882,-2.8908,-2.8912,-2.893,-2.8964,-2.8979,-2.8991,-2.9019,-2.9021,-2.9025,-2.9036,-2.9053,-2.9056,-2.9058,-2.907,-2.9073,-2.9027,-2.9027,-2.9027,0,-2.8781,-2.8809,-2.8817,-2.8837,-2.885,-2.8854,-2.8875,-2.8887,-2.8913,-2.8922,-2.8917,-2.8961,-2.8975,-2.9007,-2.9014,-2.9023,-2.903,-2.9022,-2.9054,-2.9057,-2.906,-2.9071,-2.9075,-2.9028,-2.9027,-2.9027,-2.9027,0,-2.8815,-2.8835,-2.8848,-2.8872,-2.8886,-2.8907,-2.8919,-2.8932,-2.8937,-2.8947,-2.8975,-2.8992,-2.9015,-2.9023,-2.9028,-2.9056,-2.9054,-2.9052,-2.9045,-2.9064,-2.9074,-2.9079,-2.9028,-2.9028,-2.9028,-2.9028,0,0,-2.8837,-2.8866,-2.8871,-2.8882,-2.8905,-2.8921,-2.8942,-2.8964,-2.8976,-2.8994,-2.9013,-2.9042,-2.904,-2.9054,-2.906,-2.9075,-2.9098,-2.9072,-2.9072,-2.9077,-2.9132,-2.9135,-2.9139,-2.9099,-2.91,-2.9101,-2.9131,0,-2.8862,-2.8899,-2.8907,-2.894,-2.8959,-2.8963,-2.8982,-2.8998,-2.9009,-2.9027,-2.9039,-2.906,-2.9055,-2.9064,-2.9079,-2.9092,-2.9109,-2.909,-2.9119,-2.9119,-2.9114,-2.9144,-2.9146,-2.9174,-2.9135,-2.9136,-2.9136,0,-2.8895,-2.8913,-2.8947,-2.8968,-2.8977,-2.8993,-2.9015,-2.9032,-2.9052,-2.9058,-2.9074,-2.9079,-2.9103,-2.9094,-2.9127,-2.9114,-2.9126,-2.9135,-2.9136,-2.914,-2.913,-2.915,-2.9183,-2.9188,-2.9143,-2.9142,-2.9142,0,-2.8909,-2.8942,-2.8967,-2.8977,-2.9002,-2.9013,-2.9024,-2.9043,-2.9057,-2.9076,-2.9085,-2.9107,-2.912,-2.9137,-2.9149,-2.9141,-2.9182,-2.9174,-2.919,-2.919,-2.9199,-2.9198,-2.9235,-2.9205,-2.9205,-2.9205,-2.9205,0,-2.8936,-2.8957,-2.8974,-2.8989,-2.9014,-2.9024,-2.9048,-2.9059,-2.9076,-2.9095,-2.91,-2.9118,-2.9131,-2.9151,-2.9161,-2.9188,-2.9193,-2.92,-2.9203,-2.92,-2.92,-2.9209,-2.9208,-2.9206,-2.9206,-2.9205,-2.9205,0,-2.8956,-2.8968,-2.8996,-2.9017,-2.9023,-2.904,-2.9059,-2.9075,-2.9085,-2.9109,-2.9115,-2.9132,-2.9156,-2.917,-2.9199,-2.9206,-2.9237,-2.9238,-2.923,-2.9231,-2.9247,-2.9246,-2.9292,-2.93,-2.9263,-2.9263,-2.9264,0,-2.8973,-2.899,-2.9013,-2.9025,-2.9037,-2.9057,-2.9071,-2.9082,-2.9096,-2.912,-2.9133,-2.9157,-2.9177,-2.9215,-2.9231,-2.9255,-2.9257,-2.9272,-2.926,-2.9258,-2.9259,-2.9258,-2.9261,-2.9274,-2.9274,-2.9274,-2.9275,0,-2.9003,-2.9008,-2.9027,-2.9049,-2.9065,-2.9083,-2.91,-2.9111,-2.9125,-2.9141,-2.9165,-2.9181,-2.9211,-2.9236,-2.9261,-2.9273,-2.9277,-2.9278,-2.9283,-2.9281,-2.9277,-2.9281,-2.9237,-2.9277,-2.9277,-2.9277,-2.9276,-2.9276,-2.9023,-2.9038,-2.9057,-2.9079,-2.9093,-2.9109,-2.9126,-2.9138,-2.9159,-2.9184,-2.919,-2.9216,-2.9236,-2.927,-2.9283,-2.9305,-2.9302,-2.9309,-2.9311,-2.9313,-2.9314,-2.9273,-2.9309,-2.9309,-2.9309,-2.9309,-2.9309,0,-2.9054,-2.9066,-2.9086,-2.911,-2.9128,-2.9129,-2.9149,-2.9163,-2.9186,-2.9204,-2.9224,-2.9253,-2.9276,-2.9294,-2.9319,-2.9333,-2.9335,-2.9339,-2.9339,-2.9342,-2.9314,-2.9308,-2.9337,-2.9337,-2.9337,-2.9337,-2.9337,-2.9337,-2.9072,-2.9098,-2.9106,-2.9139,-2.9152,-2.9177,-2.9189,-2.9205,-2.9219,-2.9251,-2.9271,-2.9282,-2.93,-2.9327,-2.9349,-2.9354,-2.9364,-2.9367,-2.9373,-2.9347,-2.9344,-2.9341,-2.9335,-2.9369,-2.9369,-2.9399,-2.9399,-2.9399]}]]